Header for Extended Forecast Station List Page

Search by: ID | Name | Date | Parm | Value | Avg | % Avg
Sort by: ID | Name | Date | Parm | Value | Avg | % Avg

Enter search or view all records.

Click on id for station plot
#IDNameDateParmValueAvg% Avg
0BULO3BULLY CREEK-BULLY CREEK DAM10-21-2021INFLOW (KAF)162908
1RIDI1WILLOW CREEK-RIRIE DAM10-21-2021INFLOW (KAF)101186
2LWRI1LITTLE WOOD-LITTLE WOOD DAM10-21-2021INFLOW (KAF)111390
3BERO3MALHEUR-AGENCY VALLEY DAM10-21-2021INFLOW (KAF)101662
4DEDI1DEADWOOD-NEAR LOWMAN10-21-2021INFLOW (KAF)131774
5MYKO3MCKAY CREEK-NEAR PILOT ROCK10-21-2021DISCHARGE (KAF)2518135
6HWRI1BIG LOST-AT HOWELL RANCH NEAR CHILLY10-21-2021DISCHARGE (KAF)122059
7WRMO3MALHEUR-WARM SPRINGS DAM10-21-2021INFLOW (KAF)172084
8MAGI1BIG WOOD-MAGIC DAM10-21-2021INFLOW (KAF)122158
9HOTI1BRUNEAU-NEAR HOT SPRINGS10-21-2021DISCHARGE (KAF)162468
10ARDW1ENTIAT-NEAR ARDENVOIR10-21-2021DISCHARGE (KAF)2625104
11STRM8ST. REGIS-NEAR ST. REGIS10-21-2021DISCHARGE (KAF)173352
12GIBO3UMATILLA-NEAR GIBBON10-21-2021DISCHARGE (KAF)3534101
13HALI1BIG WOOD-AT HAILEY10-21-2021DISCHARGE (KAF)263867
14SATI1ST MARIES-NEAR SANTA10-21-2021DISCHARGE (KAF)153939
15BUDW1BUMPING-BUMPING LAKE DAM10-21-2021INFLOW (KAF)3939100
16TNAW1TEANAWAY-BELOW FORKS10-21-2021DISCHARGE (KAF)264164
17MACI1BIG LOST-MACKAY RESERVOIR NEAR MACKAY10-21-2021INFLOW (KAF)214152
18RCCM8ROCK CREEK-NEAR CLINTON10-21-2021DISCHARGE (KAF)464699
19PIHI1PORTNEUF-AT POCATELLO10-21-2021DISCHARGE (KAF)374778
20KADW1KACHESS-KACHESS DAM10-21-2021INFLOW (KAF)5250104
21DLGM8CLARK FORK-AT DEER LODGE10-21-2021DISCHARGE (KAF)495196
22KEDW1YAKIMA-KEECHELUS LAKE10-21-2021INFLOW (KAF)535596
23MILI1SNAKE-AT MILNER10-21-2021DISCHARGE (KAF)M55M
24BIGI1BOISE-AT GLENWOOD BRIDGE10-21-2021DISCHARGE (KAF)536383
25ARAI1SF BOISE-ANDERSON RANCH DAM10-21-2021INFLOW (KAF)597084
26RILW1TIETON-RIMROCK LAKE NEAR RIMROCK10-21-2021INFLOW (KAF)427159
27EASW1YAKIMA-AT EASTON10-21-2021DISCHARGE (KAF)677293
28WSRI1WEISER-NEAR WEISER10-21-2021DISCHARGE (KAF)518063
29PDTO3UMATILLA-AT PENDLETON10-21-2021DISCHARGE (KAF)9680121
30LUCI1BOISE-LUCKY PEAK DAM10-21-2021INFLOW (KAF)508261
31CSDI1NF PAYETTE-CASCADE DAM10-21-2021INFLOW (KAF)9287106
32OWYO3OWYHEE-OWYHEE DAM10-21-2021INFLOW (KAF)688877
33UMAO3UMATILLA-NEAR UMATILLA10-21-2021DISCHARGE (KAF)14289159
34MONO3NF JOHN DAY-AT MONUMENT10-21-2021DISCHARGE (KAF)929795
35TEAI1TETON-NEAR ST. ANTHONY10-21-2021DISCHARGE (KAF)9010189
36PATW1METHOW-NEAR PATEROS10-21-2021DISCHARGE (KAF)8110477
37IPDI1HENRYS FORK-ISLAND PARK DAM10-21-2021INFLOW (KAF)8210777
38JLKW4SNAKE-JACKSON LAKE AT DAM10-21-2021INFLOW (KAF)8211273
39CLFW1NACHES-NEAR CLIFFDEL10-21-2021DISCHARGE (KAF)8811477
40CLUW1CLE ELUM-CLE ELUM LAKE10-21-2021INFLOW (KAF)134117114
41CHEI1FALL RIVER-NEAR CHESTER10-21-2021DISCHARGE (KAF)10511889
42LAUW1KETTLE-AT LAURIER10-21-2021DISCHARGE (KAF)9312177
43TCHW1WALLA WALLA-NEAR TOUCHET10-21-2021DISCHARGE (KAF)10012282
44DRMM8CLARK FORK-NR DRUMMOND10-21-2021DISCHARGE (KAF)11612593
45BONM8BLACKFOOT-NEAR BONNER10-21-2021DISCHARGE (KAF)10513379
46NACW1NACHES-NEAR NACHES10-21-2021DISCHARGE (KAF)6614645
47WGCM8MF FLATHEAD-NEAR WEST GLACIER10-21-2021DISCHARGE (KAF)5316332
48SERO3JOHN DAY-AT SERVICE CK10-21-2021DISCHARGE (KAF)17517799
49FCFM8NF FLATHEAD-NEAR COLUMBIA FALLS10-21-2021DISCHARGE (KAF)13118571
50CHDW1CHELAN-LAKE CHELAN DAM10-21-2021INFLOW (KAF)225192117
51BITM8BITTERROOT-NEAR MISSOULA10-21-2021DISCHARGE (KAF)12320759
52PARI1BOISE-NEAR PARMA10-21-2021DISCHARGE (KAF)19820995
53HODO3HOOD-NEAR TUCKER BRIDGE10-21-2021DISCHARGE (KAF)250212118
54UNDW1WHITE SALMON-NEAR UNDERWOOD10-21-2021DISCHARGE (KAF)233230101
55HHWM8SF FLATHEAD-HUNGRY HORSE DAM10-21-2021INFLOW (KAF)14223161
56PRTI1PRIEST-NEAR PRIEST RIVER10-21-2021DISCHARGE (KAF)16524567
57EMMI1PAYETTE-NEAR EMMETT10-21-2021DISCHARGE (KAF)25627593
58UMTW1YAKIMA-AT UMTANUM10-21-2021DISCHARGE (KAF)22028078
59PITW1KLICKITAT-NEAR PITT10-21-2021DISCHARGE (KAF)289284102
60TONW1OKANOGAN-NEAR TONASKET10-21-2021DISCHARGE (KAF)25129585
61TRYO3GRANDE RONDE-TROY10-21-2021DISCHARGE (KAF)23029777
62ABOM8CLARK FORK-ABOVE MISSOULA10-21-2021DISCHARGE (KAF)28032586
63PESW1WENATCHEE-AT PESHASTIN10-21-2021DISCHARGE (KAF)30832695
64JKSW4SNAKE-NEAR JACKSON10-21-2021DISCHARGE (KAF)27632984
65ANTI1HENRYS FORK-AT ST. ANTHONY10-21-2021DISCHARGE (KAF)31636985
66ALPW4SNAKE-NEAR ALPINE10-21-2021DISCHARGE (KAF)33639884
67HEII1SNAKE-NEAR HEISE10-21-2021DISCHARGE (KAF)29540573
68REXI1HENRYS FORK-AT REXBURG10-21-2021DISCHARGE (KAF)39642693
69PARW1YAKIMA-NEAR PARKER10-21-2021DISCHARGE (KAF)40448583
70BELM8CLARK FORK-BELOW MISSOULA10-21-2021DISCHARGE (KAF)40353975
71DWRI1NF CLEARWATER-DWORSHAK DAM10-21-2021INFLOW (KAF)30655555
72BFTI1SNAKE-NEAR BLACKFOOT10-21-2021DISCHARGE (KAF)45859976
73PLDI1SF SNAKE-PALISADES DAM10-21-2021INFLOW (KAF)52261085
74SNAI1SNAKE-AT BLACKFOOT10-21-2021DISCHARGE (KAF)43961072
75SIFI1SNAKE-AB EAGLE ROCK NR IDAHO FALLS10-21-2021DISCHARGE (KAF)52168676
76ORFI1CLEARWATER-AT OROFINO10-21-2021DISCHARGE (KAF)39270156
77SHYI1SNAKE-NEAR SHELLEY10-21-2021DISCHARGE (KAF)52170474
78KIOW1YAKIMA-AT KIONA10-21-2021DISCHARGE (KAF)58170682
79SRGM8CLARK FORK-AT ST REGIS10-21-2021DISCHARGE (KAF)51170872
80COEI1COEUR D ALENE-COEUR D ALENE LAKE10-21-2021INFLOW (KAF)34776245
81LYDM8KOOTENAI-LIBBY DAM10-21-2021INFLOW (KAF)77892085
82CFMM8FLATHEAD-AT COLUMBIA FALLS10-21-2021DISCHARGE (KAF)88393495
83SPOW1SPOKANE-AT SPOKANE10-21-2021DISCHARGE (KAF)44395946
84WHBI1SALMON-AT WHITEBIRD10-21-2021DISCHARGE (KAF)780102776
85LLKW1SPOKANE-AT LONGLAKE10-21-2021INFLOW (KAF)629115854
86AFRI1SNAKE-AMERICAN FALLS RESERVOIR10-21-2021INFLOW (KAF)1110119593
87SPDI1CLEARWATER-AT SPALDING10-21-2021DISCHARGE (KAF)838130564
88KERM8FLATHEAD-SELI’Š KSANKA QLISPE’ DAM10-21-2021INFLOW (KAF)961132273
89MODO3DESCHUTES-AT MOODY NR BIGGS10-21-2021DISCHARGE (KAF)13851332104
90SWAI1SNAKE-BELOW SWAN FALLS10-21-2021DISCHARGE (KAF)1788185596
91LEOI1KOOTENAI-AT LEONIA10-21-2021DISCHARGE (KAF)2000265675
92WEII1SNAKE-AT WEISER10-21-2021DISCHARGE (KAF)2598272995
93BRNI1SNAKE-BROWNLEE DAM10-21-2021INFLOW (KAF)2800286898
94NOXM8CLARK FORK-NOXON RAPIDS DAM10-21-2021INFLOW (KAF)2293306875
95CABI1CLARK FORK-CABINET GORGE DAM10-21-2021INFLOW (KAF)2516344073
96ALFW1PEND OREILLE-ALBENI FALLS DAM10-21-2021INFLOW (KAF)2779383472
97ANAW1SNAKE-NEAR ANATONE10-21-2021DISCHARGE (KAF)3624444082
98LGDW1SNAKE-LOWER GRANITE DAM10-21-2021INFLOW (KAF)4462580777
99LGSW1SNAKE-LITTLE GOOSE DAM10-21-2021INFLOW (KAF)4462584976
100LMNW1SNAKE-LOWER MONUMENTAL DAM10-21-2021INFLOW (KAF)4514589477
101IHDW1SNAKE-ICE HARBOR DAM10-21-2021INFLOW (KAF)4514592376
102CIBW1COLUMBIA-AT INTL BOUNDARY10-21-2021DISCHARGE (KAF)177152022688
103GCDW1COLUMBIA-GRAND COULEE DAM10-21-2021INFLOW (KAF)185152128287
104CHJW1COLUMBIA-CHIEF JOSEPH DAM10-21-2021INFLOW (KAF)205662295690
105WELW1COLUMBIA-WELLS DAM10-21-2021INFLOW (KAF)208912355689
106RRHW1COLUMBIA-ROCKY REACH DAM10-21-2021INFLOW (KAF)212112394889
107WANW1COLUMBIA-WANAPUM DAM10-21-2021INFLOW (KAF)215032459187
108PRWW1COLUMBIA-PRIEST RAPIDS DAM10-21-2021INFLOW (KAF)215032466387
109MCDW1COLUMBIA-MCNARY DAM10-21-2021INFLOW (KAF)266573165184
110JDAO3COLUMBIA-JOHN DAY DAM10-21-2021INFLOW (KAF)278963273285
111TDAO3COLUMBIA-THE DALLES DAM10-21-2021INFLOW (KAF)286253343386
112BONO3COLUMBIA-BONNEVILLE DAM10-21-2021INFLOW (KAF)294403481785
113BFEI1KOOTENAI-AT BONNERS FERRY10-21-2021STAGE (FT)MMM
114HOPI1PEND OREILLE-PEND OREILLE LAKE NR HOPE10-21-2021LAKE ELEVATION (FT)MMM
115SJMI1ST JOE-AT ST MARIES10-21-2021STAGE (FT)MMM